Flag for Ireland Weather past 2 weeks in Cork, Ireland

Now
52 °F

Passing clouds.


Feels Like: 51 °F
Forecast: 62 / 69 °F
Wind: 5 mph from Northeast

Location: Cork Airport

Current Time: Sep 16, 2014 at 5:00:46 AM

Latest Report: Sep 16, 2014 at 4:00 AM


Visibility: 9 mi

Pressure: 29.97 "Hg

Humidity: 97%

Dew point: 51 °F

Location of CorkLocation

Historic Weather in Cork — Graph

°F

Cork temperature yesterday

Maximum temperature yesterday: 64 °F (at 2:00 PM)
Minimum temperature yesterday: 53 °F (at 4:00 AM)
Average temperature yesterday: 57 °F

Past Weeks' High & Low Weather Summary

 TemperatureHumidityPressure
High69 °F (Sep 4, 2:00 PM)100% (Sep 4, 4:00 AM)30.29 "Hg (Sep 4, 4:00 AM)
Low46 °F (Sep 7, 7:00 AM)56% (Sep 7, 2:00 PM)29.98 "Hg (Sep 16, 3:00 AM)
Average57 °F86%30.14 "Hg
* Reported Sep 1 3:00 AM — Sep 16 3:00 AM, Cork, Weather by CustomWeather, © 2014

Note: Actual official high and low records may vary slightly from our data, if they occured in-between our weather recording intervals... More about our weather records

Advertising

Cork weather history for previous 24 hours

 ConditionsComfort  
Time TempWeatherWind HumidityBarometerVisibility
3:00 AM
Sep 16
54 °FPassing clouds.3 mph97%29.98 "Hg11 mi
2:00 AM53 °FPassing clouds.3 mph96%29.99 "Hg11 mi
1:00 AM53 °FPassing clouds.3 mph95%30.01 "Hg11 mi
12:00 AM53 °FPassing clouds.3 mph94%30.02 "Hg12 mi
11:00 PM
Sep 15
54 °FPassing clouds.2 mph94%30.02 "Hg12 mi
10:00 PM54 °FPassing clouds.2 mph93%30.02 "Hg12 mi
9:00 PM54 °FPassing clouds.3 mph91%30.03 "Hg12 mi
8:00 PM55 °FPassing clouds.3 mph87%30.02 "Hg11 mi
7:00 PM58 °FPartly sunny.6 mph83%30.01 "Hg12 mi
6:00 PM60 °FPartly sunny.6 mph80%30.01 "Hg16 mi
5:00 PM63 °FScattered clouds.6 mph73%30.01 "Hg19 mi
4:00 PM63 °FScattered clouds.7 mph71%30.02 "Hg16 mi
3:00 PM63 °FScattered clouds.7 mph74%30.04 "Hg16 mi
2:00 PM64 °FOvercast.7 mph76%30.05 "Hg12 mi
1:00 PM62 °FPartly sunny.7 mph81%30.06 "Hg12 mi
12:00 PM60 °FLow clouds.8 mph88%30.06 "Hg12 mi
11:00 AM61 °FOvercast.8 mph85%30.07 "Hg12 mi
10:00 AM60 °FFog.7 mph93%30.08 "Hg7 mi
9:00 AM58 °FFog.7 mph96%30.07 "Hg7 mi
8:00 AM56 °FFog.6 mph96%30.07 "Hg7 mi
7:00 AM55 °FFog.6 mph95%30.07 "Hg7 mi
6:00 AM55 °FOvercast.6 mph95%30.06 "Hg12 mi
5:00 AM54 °FPassing clouds.5 mph94%30.07 "Hg12 mi
Weather by CustomWeather, © 2014

See weather overviewHow to use our weather pages